{"data":{"norad_id":40045,"intl_designator":"2014-033AM","name":"AEROCUBE 6A","alt_names":[],"object_type":"PAYLOAD","status":"ACTIVE","operator":null,"country":"US","launch_date":"2014-06-19","launch_site_code":"DLS","launch_vehicle":null,"mission":null,"orbit_class":"UNKNOWN","rcs_meters":0.0179,"size_class":null,"mass_kg":null,"dimensions":null,"purposes":["tech_demo"],"wikipedia_slug":null,"has_3d_model":false,"image_url":null,"decayed_at":null,"tle_current":{"epoch":"2026-09-20T04:13:35.853024Z","epoch_age_seconds":42406,"freshness":"FRESH","line1":"1 40045U 14033AM  26263.17610941  .00002684  00000+0  22345-3 0  9990","line2":"2 40045  97.7322  69.2315 0038575  56.3851 304.1044 14.98951825660849","mean_motion":14.98951825,"eccentricity":0.0038575,"inclination_deg":97.7322,"raan_deg":69.2315,"arg_perigee_deg":56.3851,"mean_anomaly_deg":304.1044,"bstar":0.00022345,"rev_number":66084,"period_min":96.067130109402,"perigee_km":543.33065932765,"apogee_km":596.93656710863,"semimajor_km":6948.2706132181,"source":"CELESTRAK","updated_at":"2026-09-20T09:00:48.026628Z"}}}